Overview Statistics Trail Chart Weather Telemetry Raw packets
 

This is the latest recevied weather packets stored in our database for station/object IONIA-WX. If no packets are shown the sender has not sent any weather packets the latest 10 day(s).

<< 6 7 8 9 10 11 12 >>
Time Temp. Humidity Pressure Rain* Wind** Luminosity Snow
1788460218 30° C 57% 984.7 hPa 0 mm - - -
1788459316 31.11° C 57% 984.7 hPa 0 mm - - -
1788458422 31.11° C 57% 984.7 hPa 0 mm - - -
1788457517 31.11° C 68% 983 hPa 0 mm - - -
1788456615 30° C 66% 984.1 hPa 0 mm - - -
1788455718 30.56° C 66% 984.1 hPa 0 mm - - -
1788454818 30° C 66% 984.1 hPa 0 mm - - -
1788453918 30° C 71% 984 hPa 0 mm - - -
1788453018 28.89° C 72% 984.4 hPa 0 mm - - -
1788452118 28.33° C 72% 984.4 hPa 0 mm - - -
1788451219 28.33° C 72% 984.4 hPa 0 mm - - -
1788450317 27.78° C 81% 983.3 hPa 0 mm - - -
1788449417 27.22° C 82% 984.6 hPa 0 mm - - -
1788448517 26.67° C 82% 984.6 hPa 0 mm - - -
1788447618 26.67° C 82% 984.6 hPa 0 mm - - -
1788446717 26.11° C 89% 985.3 hPa 1.78 mm - - -
1788445817 25.56° C 79% 984.6 hPa 1.78 mm - - -
1788444918 25.56° C 79% 984.7 hPa 0 mm - - -
1788444017 25° C 76% 985.3 hPa 0 mm - - -
1788443117 24.44° C 84% 984.1 hPa 0 mm - - -
1788442218 23.89° C 84% 984.1 hPa 0 mm - - -
1788441317 23.33° C 84% 984.1 hPa 0 mm - - -
1788440416 22.78° C 84% 984.1 hPa 0 mm - - -
1788439516 22.78° C 94% 984 hPa 0 mm - - -
1788438617 22.22° C 91% 984.9 hPa 0 mm - - -

* Rain latest hour (hover to see other rain measurements)
** Current wind speed in m/s (hover to see current wind gust speed)